| time (UTC) | temp F | wind direction | speed MPH | gust MPH | rain 1hr in | rain 24hr in | rain mn in | humidity % | barometer mb |
| 20260901210105 | 68 | 195 | 2.0 | 5.0 | 0.00 | 0.00 | 0.00 | 76 | 1009.4 |
| 20260901205605 | 68 | 209 | 2.0 | 5.0 | 0.00 | 0.00 | 0.00 | 76 | 1009.5 |
| 20260901202606 | 69 | 197 | 1.0 | 5.0 | 0.00 | 0.00 | 0.00 | 74 | 1009.6 |
| 20260901202107 | 69 | 195 | 1.0 | 3.0 | 0.00 | 0.00 | 0.00 | 74 | 1009.6 |
| 20260901201605 | 69 | 225 | 2.0 | 3.0 | 0.00 | 0.00 | 0.00 | 75 | 1009.6 |
| 20260901201105 | 68 | 201 | 2.0 | 3.0 | 0.00 | 0.00 | 0.00 | 76 | 1009.6 |
| 20260901200605 | 68 | 201 | 2.0 | 5.0 | 0.00 | 0.00 | 0.00 | 76 | 1009.6 |
| 20260901200106 | 68 | 223 | 1.0 | 5.0 | 0.00 | 0.00 | 0.00 | 75 | 1009.6 |
| 20260901194605 | 68 | 209 | 2.0 | 3.0 | 0.00 | 0.00 | 0.00 | 75 | 1009.6 |
| 20260901194105 | 68 | 214 | 2.0 | 5.0 | 0.00 | 0.00 | 0.00 | 76 | 1009.6 |
| 20260901193606 | 68 | 195 | 2.0 | 5.0 | 0.00 | 0.00 | 0.00 | 77 | 1009.6 |
| 20260901192605 | 67 | 212 | 1.0 | 3.0 | 0.00 | 0.00 | 0.00 | 78 | 1009.6 |
| 20260901191105 | 67 | 210 | 1.0 | 6.0 | 0.00 | 0.00 | 0.00 | 79 | 1009.7 |
| 20260901190605 | 67 | 218 | 2.0 | 3.0 | 0.00 | 0.00 | 0.00 | 79 | 1009.7 |
| 20260901190105 | 66 | 212 | 1.0 | 3.0 | 0.00 | 0.00 | 0.00 | 79 | 1009.8 |
| 20260901185604 | 66 | 209 | 1.0 | 3.0 | 0.00 | 0.00 | 0.00 | 79 | 1009.8 |
| 20260901185105 | 66 | 213 | 1.0 | 6.0 | 0.00 | 0.00 | 0.00 | 79 | 1009.8 |
| 20260901184605 | 66 | 217 | 2.0 | 6.0 | 0.00 | 0.00 | 0.00 | 78 | 1009.8 |
| 20260901183605 | 67 | 198 | 2.0 | 5.0 | 0.00 | 0.00 | 0.00 | 80 | 1009.8 |
| 20260901182605 | 66 | 216 | 1.0 | 3.0 | 0.00 | 0.00 | 0.00 | 81 | 1009.7 |
| 20260901182105 | 66 | 222 | 1.0 | 5.0 | 0.00 | 0.00 | 0.00 | 81 | 1009.7 |
| 20260901181607 | 66 | 224 | 1.0 | 5.0 | 0.00 | 0.00 | 0.00 | 82 | 1009.7 |
| 20260901181107 | 66 | 210 | 1.0 | 5.0 | 0.00 | 0.00 | 0.00 | 82 | 1009.7 |
| 20260901180608 | 65 | 211 | 1.0 | 3.0 | 0.00 | 0.00 | 0.00 | 82 | 1009.7 |
| 20260901180111 | 65 | 203 | 1.0 | 5.0 | 0.00 | 0.00 | 0.00 | 83 | 1009.7 |
| 20260901175607 | 65 | 215 | 1.0 | 6.0 | 0.00 | 0.00 | 0.00 | 84 | 1009.7 |
| 20260901175106 | 65 | 221 | 1.0 | 6.0 | 0.00 | 0.00 | 0.00 | 86 | 1009.6 |
| 20260901174605 | 64 | 195 | 1.0 | 5.0 | 0.00 | 0.00 | 0.00 | 86 | 1009.5 |
| 20260901174106 | 64 | 195 | 0.0 | 3.0 | 0.00 | 0.00 | 0.00 | 86 | 1009.5 |
| 20260901173604 | 63 | 195 | 1.0 | 3.0 | 0.00 | 0.00 | 0.00 | 86 | 1009.5 |
| 20260901173105 | 63 | 199 | 1.0 | 3.0 | 0.00 | 0.00 | 0.00 | 86 | 1009.5 |
| 20260901172105 | 62 | 210 | 1.0 | 3.0 | 0.00 | 0.00 | 0.00 | 86 | 1009.5 |
| 20260901171605 | 62 | 208 | 0.0 | 3.0 | 0.00 | 0.00 | 0.00 | 86 | 1009.4 |
| 20260901171104 | 62 | 205 | 1.0 | 3.0 | 0.00 | 0.00 | 0.00 | 86 | 1009.5 |
| 20260901165605 | 62 | 201 | 0.0 | 5.0 | 0.00 | 0.00 | 0.00 | 87 | 1009.4 |
| 20260901165105 | 62 | 198 | 1.0 | 3.0 | 0.00 | 0.00 | 0.00 | 88 | 1009.3 |
| 20260901164605 | 62 | 195 | 0.0 | 3.0 | 0.00 | 0.00 | 0.00 | 87 | 1009.4 |
| 20260901164106 | 62 | 197 | 1.0 | 3.0 | 0.00 | 0.00 | 0.00 | 87 | 1009.4 |
| 20260901163604 | 62 | 210 | 0.0 | 3.0 | 0.00 | 0.00 | 0.00 | 88 | 1009.4 |
| 20260901163105 | 62 | 211 | 0.0 | 3.0 | 0.00 | 0.00 | 0.00 | 88 | 1009.4 |
| 20260901162605 | 61 | 210 | 1.0 | 3.0 | 0.00 | 0.00 | 0.00 | 88 | 1009.4 |
| 20260901161605 | 61 | 205 | 1.0 | 3.0 | 0.00 | 0.00 | 0.00 | 88 | 1009.4 |
| 20260901161104 | 61 | 196 | 1.0 | 3.0 | 0.00 | 0.00 | 0.00 | 89 | 1009.4 |
| 20260901160604 | 61 | 209 | 1.0 | 3.0 | 0.00 | 0.00 | 0.00 | 89 | 1009.4 |
| 20260901155605 | 61 | 212 | 0.0 | 3.0 | 0.00 | 0.00 | 0.00 | 89 | 1009.4 |
| 20260901155105 | 61 | 212 | 0.0 | 2.0 | 0.00 | 0.00 | 0.00 | 89 | 1009.4 |
| 20260901153606 | 60 | 212 | 0.0 | 1.0 | 0.00 | 0.00 | 0.00 | 90 | 1009.4 |
| 20260901152605 | 60 | 212 | 0.0 | 2.0 | 0.00 | 0.00 | 0.00 | 89 | 1009.4 |
| 20260901152105 | 60 | 212 | 0.0 | 2.0 | 0.00 | 0.00 | 0.00 | 89 | 1009.4 |
| 20260901151604 | 60 | 212 | 0.0 | 0.0 | 0.00 | 0.00 | 0.00 | 89 | 1009.3 |
| 20260901151104 | 60 | 212 | 0.0 | 0.0 | 0.00 | 0.00 | 0.00 | 89 | 1009.2 |
| 20260901150605 | 60 | 212 | 0.0 | 0.0 | 0.00 | 0.00 | 0.00 | 89 | 1009.2 |
| 20260901150106 | 60 | 212 | 0.0 | 0.0 | 0.00 | 0.00 | 0.00 | 89 | 1009.2 |
| 20260901145604 | 60 | 212 | 0.0 | 0.0 | 0.00 | 0.00 | 0.00 | 89 | 1009.1 |
| 20260901145105 | 59 | 212 | 0.0 | 0.0 | 0.00 | 0.00 | 0.00 | 89 | 1009.1 |
| 20260901144605 | 59 | 212 | 0.0 | 0.0 | 0.00 | 0.00 | 0.00 | 89 | 1009.1 |
| 20260901144104 | 59 | 212 | 0.0 | 0.0 | 0.00 | 0.00 | 0.00 | 89 | 1009.1 |
| 20260901143604 | 59 | 212 | 0.0 | 0.0 | 0.00 | 0.00 | 0.00 | 89 | 1009.1 |
| 20260901142604 | 59 | 212 | 0.0 | 0.0 | 0.00 | 0.00 | 0.00 | 89 | 1009.2 |
| 20260901142105 | 59 | 212 | 0.0 | 0.0 | 0.00 | 0.00 | 0.00 | 89 | 1009.2 |
| 20260901141606 | 59 | 212 | 0.0 | 0.0 | 0.00 | 0.00 | 0.00 | 89 | 1009.2 |
| 20260901141105 | 59 | 212 | 0.0 | 0.0 | 0.00 | 0.00 | 0.00 | 89 | 1009.1 |
| 20260901140605 | 59 | 212 | 0.0 | 0.0 | 0.00 | 0.00 | 0.00 | 89 | 1009.0 |
| 20260901140104 | 59 | 212 | 0.0 | 0.0 | 0.00 | 0.00 | 0.00 | 89 | 1009.0 |
| 20260901135604 | 59 | 212 | 0.0 | 0.0 | 0.00 | 0.00 | 0.00 | 89 | 1009.0 |
| 20260901135105 | 59 | 212 | 0.0 | 0.0 | 0.00 | 0.00 | 0.00 | 89 | 1009.0 |
| 20260901134605 | 59 | 212 | 0.0 | 0.0 | 0.00 | 0.00 | 0.00 | 89 | 1009.0 |
| 20260901133604 | 59 | 212 | 0.0 | 0.0 | 0.00 | 0.00 | 0.00 | 89 | 1009.0 |
| 20260901133105 | 59 | 212 | 0.0 | 0.0 | 0.00 | 0.00 | 0.00 | 89 | 1009.0 |
| 20260901132606 | 59 | 212 | 0.0 | 0.0 | 0.00 | 0.00 | 0.00 | 89 | 1008.9 |
| 20260901132104 | 59 | 212 | 0.0 | 0.0 | 0.00 | 0.00 | 0.00 | 89 | 1008.9 |
| 20260901131605 | 59 | 212 | 0.0 | 0.0 | 0.00 | 0.00 | 0.00 | 89 | 1008.8 |
| 20260901131104 | 59 | 212 | 0.0 | 0.0 | 0.00 | 0.00 | 0.00 | 89 | 1008.9 |
| 20260901130606 | 58 | 212 | 0.0 | 0.0 | 0.00 | 0.00 | 0.00 | 89 | 1008.9 |
| 20260901130105 | 58 | 212 | 0.0 | 0.0 | 0.00 | 0.00 | 0.00 | 89 | 1008.9 |
| 20260901125604 | 58 | 212 | 0.0 | 0.0 | 0.00 | 0.00 | 0.00 | 89 | 1008.9 |
| 20260901125104 | 58 | 212 | 0.0 | 0.0 | 0.00 | 0.00 | 0.00 | 89 | 1008.9 |
| 20260901124605 | 58 | 212 | 0.0 | 0.0 | 0.00 | 0.00 | 0.00 | 88 | 1008.9 |
| 20260901124105 | 58 | 212 | 0.0 | 0.0 | 0.00 | 0.00 | 0.00 | 88 | 1008.9 |
| 20260901123104 | 58 | 212 | 0.0 | 0.0 | 0.00 | 0.00 | 0.00 | 88 | 1009.0 |
| 20260901122605 | 58 | 212 | 0.0 | 0.0 | 0.00 | 0.00 | 0.00 | 88 | 1009.0 |
| 20260901122106 | 58 | 212 | 0.0 | 0.0 | 0.00 | 0.00 | 0.00 | 88 | 1009.0 |
| 20260901121605 | 58 | 212 | 0.0 | 0.0 | 0.00 | 0.00 | 0.00 | 88 | 1009.0 |
| 20260901121105 | 58 | 212 | 0.0 | 0.0 | 0.00 | 0.00 | 0.00 | 88 | 1009.0 |
| 20260901120605 | 58 | 212 | 0.0 | 0.0 | 0.00 | 0.00 | 0.00 | 89 | 1009.0 |
| 20260901120106 | 58 | 212 | 0.0 | 0.0 | 0.00 | 0.00 | 0.00 | 89 | 1009.0 |
| 20260901115605 | 58 | 212 | 0.0 | 0.0 | 0.00 | 0.00 | 0.00 | 89 | 1009.1 |
| 20260901115104 | 58 | 212 | 0.0 | 0.0 | 0.00 | 0.00 | 0.00 | 89 | 1009.1 |
| 20260901114604 | 58 | 212 | 0.0 | 0.0 | 0.00 | 0.00 | 0.00 | 89 | 1009.1 |
| 20260901114104 | 58 | 212 | 0.0 | 0.0 | 0.00 | 0.00 | 0.00 | 89 | 1009.2 |
| 20260901113604 | 58 | 212 | 0.0 | 0.0 | 0.00 | 0.00 | 0.00 | 89 | 1009.2 |
| 20260901113104 | 58 | 212 | 0.0 | 0.0 | 0.00 | 0.00 | 0.00 | 89 | 1009.2 |
| 20260901112604 | 58 | 212 | 0.0 | 0.0 | 0.00 | 0.00 | 0.00 | 88 | 1009.2 |
| 20260901112105 | 58 | 212 | 0.0 | 0.0 | 0.00 | 0.00 | 0.00 | 88 | 1009.2 |
| 20260901111605 | 58 | 212 | 0.0 | 0.0 | 0.00 | 0.00 | 0.00 | 88 | 1009.1 |
| 20260901110605 | 58 | 212 | 0.0 | 0.0 | 0.00 | 0.00 | 0.00 | 88 | 1009.1 |
| 20260901110104 | 58 | 212 | 0.0 | 0.0 | 0.00 | 0.00 | 0.00 | 88 | 1009.2 |
| 20260901105605 | 58 | 212 | 0.0 | 0.0 | 0.00 | 0.00 | 0.00 | 88 | 1009.2 |
| 20260901105106 | 58 | 212 | 0.0 | 0.0 | 0.00 | 0.00 | 0.00 | 88 | 1009.2 |
| 20260901104606 | 58 | 212 | 0.0 | 0.0 | 0.00 | 0.00 | 0.00 | 88 | 1009.1 |
| 20260901104106 | 58 | 212 | 0.0 | 0.0 | 0.00 | 0.00 | 0.00 | 88 | 1009.1 |
| 20260901102104 | 58 | 212 | 0.0 | 0.0 | 0.00 | 0.00 | 0.00 | 88 | 1009.0 |
| 20260901101604 | 58 | 212 | 0.0 | 0.0 | 0.00 | 0.00 | 0.00 | 88 | 1009.0 |
| 20260901101105 | 58 | 212 | 0.0 | 0.0 | 0.00 | 0.00 | 0.00 | 88 | 1009.0 |
| 20260901100604 | 58 | 212 | 0.0 | 0.0 | 0.00 | 0.00 | 0.00 | 88 | 1009.0 |
| 20260901100105 | 58 | 212 | 0.0 | 0.0 | 0.00 | 0.00 | 0.00 | 88 | 1009.0 |
| 20260901095604 | 59 | 212 | 0.0 | 0.0 | 0.00 | 0.00 | 0.00 | 88 | 1009.0 |
| 20260901095106 | 59 | 212 | 0.0 | 0.0 | 0.00 | 0.00 | 0.00 | 88 | 1009.0 |
| 20260901094605 | 59 | 212 | 0.0 | 0.0 | 0.00 | 0.00 | 0.00 | 88 | 1009.0 |
| 20260901094104 | 59 | 212 | 0.0 | 0.0 | 0.00 | 0.00 | 0.00 | 88 | 1008.9 |
| 20260901093606 | 59 | 212 | 0.0 | 0.0 | 0.00 | 0.00 | 0.00 | 88 | 1009.0 |
| 20260901092606 | 59 | 212 | 0.0 | 0.0 | 0.00 | 0.00 | 0.00 | 88 | 1009.0 |
| 20260901092105 | 59 | 212 | 0.0 | 0.0 | 0.00 | 0.00 | 0.00 | 88 | 1009.0 |
| 20260901091605 | 59 | 212 | 0.0 | 0.0 | 0.00 | 0.00 | 0.00 | 88 | 1009.0 |
| 20260901091106 | 59 | 212 | 0.0 | 0.0 | 0.00 | 0.00 | 0.00 | 88 | 1009.0 |
| 20260901090604 | 59 | 212 | 0.0 | 0.0 | 0.00 | 0.00 | 0.00 | 88 | 1009.1 |
| 20260901090106 | 59 | 212 | 0.0 | 0.0 | 0.00 | 0.00 | 0.00 | 88 | 1009.1 |
| 20260901085604 | 59 | 212 | 0.0 | 0.0 | 0.00 | 0.00 | 0.00 | 88 | 1009.0 |
| 20260901085106 | 59 | 212 | 0.0 | 0.0 | 0.00 | 0.00 | 0.00 | 88 | 1009.0 |
| 20260901084605 | 59 | 212 | 0.0 | 0.0 | 0.00 | 0.00 | 0.00 | 88 | 1009.0 |
| 20260901084104 | 58 | 212 | 0.0 | 0.0 | 0.00 | 0.00 | 0.00 | 88 | 1008.9 |
| 20260901083104 | 58 | 212 | 0.0 | 0.0 | 0.00 | 0.00 | 0.00 | 88 | 1009.0 |
| 20260901082604 | 58 | 212 | 0.0 | 0.0 | 0.00 | 0.00 | 0.00 | 88 | 1009.0 |
| 20260901082104 | 58 | 212 | 0.0 | 0.0 | 0.00 | 0.00 | 0.00 | 88 | 1009.1 |
| 20260901081605 | 58 | 212 | 0.0 | 0.0 | 0.00 | 0.00 | 0.00 | 88 | 1009.1 |
| 20260901081104 | 57 | 212 | 0.0 | 0.0 | 0.00 | 0.00 | 0.00 | 87 | 1009.0 |
| 20260901080104 | 57 | 212 | 0.0 | 0.0 | 0.00 | 0.00 | 0.00 | 87 | 1008.9 |
| 20260901075605 | 57 | 212 | 0.0 | 0.0 | 0.00 | 0.00 | 0.00 | 87 | 1008.9 |
| 20260901075105 | 57 | 212 | 0.0 | 0.0 | 0.00 | 0.00 | 0.00 | 87 | 1008.8 |
| 20260901074605 | 57 | 212 | 0.0 | 0.0 | 0.00 | 0.00 | 0.00 | 87 | 1008.7 |
| 20260901074106 | 57 | 212 | 0.0 | 0.0 | 0.00 | 0.00 | 0.00 | 87 | 1008.8 |
| 20260901073106 | 56 | 212 | 0.0 | 0.0 | 0.00 | 0.00 | 0.00 | 87 | 1008.7 |
| 20260901072604 | 56 | 212 | 0.0 | 0.0 | 0.00 | 0.00 | 0.00 | 86 | 1008.7 |
| 20260901072105 | 56 | 212 | 0.0 | 0.0 | 0.00 | 0.00 | 0.00 | 86 | 1008.6 |
| 20260901071604 | 56 | 212 | 0.0 | 0.0 | 0.00 | 0.00 | 0.00 | 86 | 1008.7 |
| 20260901071108 | 56 | 212 | 0.0 | 0.0 | 0.00 | 0.00 | 0.00 | 86 | 1008.6 |
| 20260901065605 | 55 | 212 | 0.0 | 0.0 | 0.00 | 0.00 | 0.00 | 85 | 1008.5 |
| 20260901065104 | 55 | 212 | 0.0 | 0.0 | 0.00 | 0.00 | 0.00 | 85 | 1008.5 |
| 20260901064105 | 55 | 212 | 0.0 | 0.0 | 0.00 | 0.00 | 0.00 | 84 | 1008.6 |
| 20260901063604 | 55 | 212 | 0.0 | 0.0 | 0.00 | 0.00 | 0.00 | 84 | 1008.5 |
| 20260901063104 | 55 | 212 | 0.0 | 0.0 | 0.00 | 0.00 | 0.00 | 84 | 1008.5 |
| 20260901062605 | 55 | 212 | 0.0 | 0.0 | 0.00 | 0.00 | 0.00 | 84 | 1008.5 |
| 20260901062104 | 55 | 212 | 0.0 | 0.0 | 0.00 | 0.00 | 0.00 | 84 | 1008.5 |
| 20260901061604 | 55 | 212 | 0.0 | 0.0 | 0.00 | 0.00 | 0.00 | 84 | 1008.5 |
| 20260901060605 | 56 | 212 | 0.0 | 0.0 | 0.00 | 0.00 | 0.00 | 83 | 1008.6 |
| 20260901060104 | 56 | 212 | 0.0 | 0.0 | 0.00 | 0.00 | 0.00 | 83 | 1008.6 |
| 20260901055606 | 56 | 212 | 0.0 | 0.0 | 0.00 | 0.00 | 0.00 | 83 | 1008.6 |
| 20260901055104 | 56 | 212 | 0.0 | 0.0 | 0.00 | 0.00 | 0.00 | 83 | 1008.7 |
| 20260901054606 | 56 | 212 | 0.0 | 0.0 | 0.00 | 0.00 | 0.00 | 83 | 1008.7 |
| 20260901054104 | 56 | 212 | 0.0 | 0.0 | 0.00 | 0.00 | 0.00 | 83 | 1008.6 |
| 20260901053104 | 56 | 212 | 0.0 | 0.0 | 0.00 | 0.00 | 0.00 | 83 | 1008.6 |
| 20260901052604 | 56 | 212 | 0.0 | 0.0 | 0.00 | 0.00 | 0.00 | 83 | 1008.6 |
| 20260901052105 | 57 | 212 | 0.0 | 0.0 | 0.00 | 0.00 | 0.00 | 83 | 1008.5 |
| 20260901051605 | 57 | 212 | 0.0 | 0.0 | 0.00 | 0.00 | 0.00 | 83 | 1008.4 |
| 20260901051105 | 57 | 212 | 0.0 | 0.0 | 0.00 | 0.00 | 0.00 | 82 | 1008.3 |
| 20260901050604 | 57 | 212 | 0.0 | 0.0 | 0.00 | 0.00 | 0.00 | 82 | 1008.4 |
| 20260901050104 | 57 | 212 | 0.0 | 0.0 | 0.00 | 0.00 | 0.00 | 83 | 1008.4 |
| 20260901045604 | 57 | 212 | 0.0 | 0.0 | 0.00 | 0.00 | 0.00 | 83 | 1008.4 |
| 20260901045104 | 57 | 212 | 0.0 | 0.0 | 0.00 | 0.00 | 0.00 | 82 | 1008.4 |
| 20260901044604 | 58 | 212 | 0.0 | 0.0 | 0.00 | 0.00 | 0.00 | 82 | 1008.4 |
| 20260901044104 | 58 | 212 | 0.0 | 0.0 | 0.00 | 0.00 | 0.00 | 82 | 1008.4 |
| 20260901043604 | 58 | 212 | 0.0 | 0.0 | 0.00 | 0.00 | 0.00 | 82 | 1008.4 |
| 20260901043105 | 58 | 212 | 0.0 | 0.0 | 0.00 | 0.00 | 0.00 | 82 | 1008.4 |
| 20260901042604 | 58 | 212 | 0.0 | 0.0 | 0.00 | 0.00 | 0.00 | 82 | 1008.4 |
| 20260901042104 | 58 | 212 | 0.0 | 0.0 | 0.00 | 0.00 | 0.00 | 82 | 1008.4 |
| 20260901041604 | 58 | 212 | 0.0 | 0.0 | 0.00 | 0.00 | 0.00 | 82 | 1008.3 |
| 20260901041104 | 59 | 212 | 0.0 | 0.0 | 0.00 | 0.00 | 0.00 | 82 | 1008.2 |
| 20260901040605 | 59 | 212 | 0.0 | 0.0 | 0.00 | 0.00 | 0.00 | 82 | 1008.1 |
| 20260901040104 | 59 | 212 | 0.0 | 0.0 | 0.00 | 0.00 | 0.00 | 82 | 1008.2 |
| 20260901034605 | 60 | 212 | 0.0 | 0.0 | 0.00 | 0.00 | 0.00 | 82 | 1008.0 |
| 20260901034105 | 60 | 212 | 0.0 | 0.0 | 0.00 | 0.00 | 0.00 | 82 | 1007.9 |
| 20260901033604 | 60 | 212 | 0.0 | 0.0 | 0.00 | 0.00 | 0.00 | 82 | 1007.9 |
| 20260901033104 | 60 | 212 | 0.0 | 0.0 | 0.00 | 0.00 | 0.00 | 82 | 1007.7 |
| 20260901032604 | 61 | 212 | 0.0 | 0.0 | 0.00 | 0.00 | 0.00 | 82 | 1007.8 |
| 20260901032104 | 61 | 212 | 0.0 | 0.0 | 0.00 | 0.00 | 0.00 | 82 | 1007.7 |
| 20260901031606 | 61 | 212 | 0.0 | 0.0 | 0.00 | 0.00 | 0.00 | 82 | 1007.7 |
| 20260901031104 | 61 | 212 | 0.0 | 0.0 | 0.00 | 0.00 | 0.00 | 82 | 1007.7 |
| 20260901030604 | 61 | 212 | 0.0 | 0.0 | 0.00 | 0.00 | 0.00 | 82 | 1007.7 |
| 20260901030104 | 62 | 212 | 0.0 | 0.0 | 0.00 | 0.00 | 0.00 | 82 | 1007.7 |
| 20260901025605 | 62 | 212 | 0.0 | 0.0 | 0.00 | 0.00 | 0.00 | 82 | 1007.7 |
| 20260901025104 | 62 | 212 | 0.0 | 0.0 | 0.00 | 0.00 | 0.00 | 82 | 1007.7 |
| 20260901024104 | 62 | 212 | 0.0 | 0.0 | 0.00 | 0.00 | 0.00 | 82 | 1007.7 |
| 20260901023605 | 62 | 212 | 0.0 | 0.0 | 0.00 | 0.00 | 0.00 | 82 | 1007.8 |
| 20260901023104 | 62 | 212 | 0.0 | 0.0 | 0.00 | 0.00 | 0.00 | 82 | 1007.8 |
| 20260901022604 | 63 | 212 | 0.0 | 1.0 | 0.00 | 0.00 | 0.00 | 82 | 1007.6 |
| 20260901022104 | 63 | 212 | 0.0 | 2.0 | 0.00 | 0.00 | 0.00 | 82 | 1007.6 |
| 20260901021604 | 63 | 212 | 0.0 | 2.0 | 0.00 | 0.00 | 0.00 | 82 | 1007.7 |
| 20260901020603 | 63 | 212 | 0.0 | 2.0 | 0.00 | 0.00 | 0.00 | 82 | 1007.8 |
| 20260901015604 | 63 | 212 | 0.0 | 2.0 | 0.00 | 0.00 | 0.00 | 81 | 1007.9 |
| 20260901015103 | 63 | 212 | 0.0 | 2.0 | 0.00 | 0.00 | 0.00 | 81 | 1008.0 |
| 20260901014107 | 64 | 212 | 0.0 | 2.0 | 0.00 | 0.00 | 0.00 | 80 | 1008.0 |
| 20260901013605 | 64 | 212 | 0.0 | 3.0 | 0.00 | 0.00 | 0.00 | 80 | 1008.0 |
| 20260901013105 | 64 | 212 | 0.0 | 3.0 | 0.00 | 0.00 | 0.00 | 80 | 1008.0 |
| 20260901012605 | 64 | 212 | 1.0 | 3.0 | 0.00 | 0.00 | 0.00 | 80 | 1007.9 |
| 20260901012103 | 64 | 213 | 1.0 | 3.0 | 0.00 | 0.00 | 0.00 | 79 | 1007.9 |
| 20260901011104 | 65 | 213 | 0.0 | 5.0 | 0.00 | 0.00 | 0.00 | 79 | 1007.9 |
| 20260901010104 | 65 | 211 | 0.0 | 3.0 | 0.00 | 0.00 | 0.00 | 78 | 1007.9 |
| 20260901005604 | 66 | 210 | 1.0 | 5.0 | 0.00 | 0.00 | 0.00 | 78 | 1007.9 |
| 20260901005105 | 66 | 195 | 0.0 | 5.0 | 0.00 | 0.00 | 0.00 | 77 | 1007.9 |
| 20260901004604 | 66 | 211 | 1.0 | 5.0 | 0.00 | 0.00 | 0.00 | 77 | 1008.0 |
| 20260901004106 | 66 | 210 | 0.0 | 3.0 | 0.00 | 0.00 | 0.00 | 77 | 1008.0 |
| 20260901003604 | 66 | 211 | 2.0 | 3.0 | 0.00 | 0.00 | 0.00 | 77 | 1008.0 |
| 20260901002605 | 66 | 211 | 0.0 | 3.0 | 0.00 | 0.00 | 0.00 | 77 | 1007.9 |
| 20260901001606 | 67 | 209 | 1.0 | 3.0 | 0.00 | 0.00 | 0.00 | 77 | 1008.0 |
| 20260901001105 | 67 | 212 | 1.0 | 3.0 | 0.00 | 0.00 | 0.00 | 77 | 1008.0 |
| 20260901000604 | 67 | 212 | 0.0 | 3.0 | 0.00 | 0.00 | 0.00 | 76 | 1008.0 |
| 20260901000104 | 67 | 212 | 0.0 | 2.0 | 0.00 | 0.00 | 0.00 | 77 | 1008.1 |
| 20260831235605 | 67 | 212 | 1.0 | 5.0 | 0.00 | 0.00 | 0.00 | 77 | 1008.1 |
| 20260831235104 | 67 | 212 | 0.0 | 5.0 | 0.00 | 0.00 | 0.00 | 77 | 1008.1 |
| 20260831234604 | 67 | 215 | 2.0 | 5.0 | 0.00 | 0.00 | 0.00 | 77 | 1008.1 |
| 20260831233605 | 67 | 210 | 1.0 | 3.0 | 0.00 | 0.00 | 0.00 | 77 | 1008.1 |
| 20260831233105 | 67 | 207 | 1.0 | 6.0 | 0.00 | 0.00 | 0.00 | 77 | 1008.1 |
| 20260831232605 | 67 | 212 | 2.0 | 6.0 | 0.00 | 0.00 | 0.00 | 76 | 1008.1 |
| 20260831232104 | 67 | 213 | 2.0 | 9.0 | 0.00 | 0.00 | 0.00 | 76 | 1008.1 |
| 20260831231605 | 67 | 212 | 1.0 | 9.0 | 0.00 | 0.00 | 0.00 | 76 | 1008.0 |
| 20260831231104 | 67 | 210 | 1.0 | 8.0 | 0.00 | 0.00 | 0.00 | 77 | 1007.9 |
| 20260831230105 | 67 | 213 | 2.0 | 9.0 | 0.00 | 0.00 | 0.00 | 77 | 1008.0 |
| 20260831225606 | 67 | 211 | 1.0 | 9.0 | 0.00 | 0.00 | 0.00 | 77 | 1008.1 |
| 20260831225105 | 67 | 210 | 3.0 | 9.0 | 0.00 | 0.00 | 0.00 | 76 | 1008.1 |
| 20260831224604 | 67 | 210 | 0.0 | 3.0 | 0.00 | 0.00 | 0.00 | 76 | 1008.1 |
| 20260831224105 | 67 | 211 | 0.0 | 3.0 | 0.00 | 0.00 | 0.00 | 76 | 1008.1 |
| 20260831223604 | 67 | 210 | 1.0 | 3.0 | 0.00 | 0.00 | 0.00 | 76 | 1008.2 |
| 20260831223105 | 67 | 212 | 2.0 | 6.0 | 0.00 | 0.00 | 0.00 | 76 | 1008.1 |
| 20260831222605 | 67 | 210 | 2.0 | 6.0 | 0.00 | 0.00 | 0.00 | 76 | 1008.0 |
| 20260831222105 | 67 | 210 | 2.0 | 6.0 | 0.00 | 0.00 | 0.00 | 76 | 1008.1 |
| 20260831221605 | 68 | 214 | 2.0 | 6.0 | 0.00 | 0.00 | 0.00 | 76 | 1008.0 |
| 20260831221104 | 68 | 212 | 2.0 | 6.0 | 0.00 | 0.00 | 0.00 | 76 | 1008.2 |
| 20260831220605 | 68 | 212 | 1.0 | 6.0 | 0.00 | 0.00 | 0.00 | 76 | 1008.2 |
| 20260831220104 | 68 | 209 | 1.0 | 7.0 | 0.00 | 0.00 | 0.00 | 76 | 1008.1 |
| 20260831215604 | 68 | 211 | 1.0 | 8.0 | 0.00 | 0.00 | 0.00 | 76 | 1008.1 |
| 20260831215104 | 68 | 210 | 3.0 | 8.0 | 0.00 | 0.00 | 0.00 | 76 | 1008.1 |
| 20260831214605 | 68 | 212 | 2.0 | 8.0 | 0.00 | 0.00 | 0.00 | 76 | 1008.2 |
| 20260831214105 | 68 | 208 | 2.0 | 8.0 | 0.00 | 0.00 | 0.00 | 77 | 1008.3 |
| 20260831213604 | 68 | 212 | 3.0 | 10.0 | 0.00 | 0.00 | 0.00 | 77 | 1008.3 |
| 20260831213105 | 68 | 211 | 4.0 | 10.0 | 0.00 | 0.00 | 0.00 | 76 | 1008.3 |
| 20260831212605 | 68 | 213 | 2.0 | 10.0 | 0.00 | 0.00 | 0.00 | 77 | 1008.3 |
| 20260831211605 | 69 | 212 | 3.0 | 7.0 | 0.00 | 0.00 | 0.00 | 76 | 1008.3 |
| 20260831211104 | 69 | 211 | 2.0 | 6.0 | 0.00 | 0.00 | 0.00 | 77 | 1008.4 |